Content
SEND FEEDBACK

Daily
Averages
Monthly
Summary
France

DAX, FRANCE


Home > Europe > France
Elevation: 105 feet     Latitude: 43 41N     Longitude: 001 04W

WEATHER
 
SELECT A DAY
Number of Records: 35,951;   Date Range: 7/28/06 - 9/15/14
 
SHARE

PRINT THIS DATA

[ ← Previous Day ]
WEATHER ALMANAC - JANUARY 31, 2013
[ Next Day → ]
[ °C ]   °F
Weather ElementAverageHighLow
Temperature54 °F62.6 °F (3:00 pm)46.4 °F (4:00 am)
Dewpoint51.9 °F57.2 °F (1:00 pm)46.4 °F (4:00 am)
Humidity93.1 %100 % (2:00 am)72 % (4:00 pm)
Barometer30.36 in30.42 in (10:48 am)30.30 in (10:00 pm)
Wind Speed2.5 mph4.6 mph (1:00 pm)
Weather ElementAverage
Visibility5.4 mi
Wind DirectionSE (134.2 °)

Weather ElementTotal
Precipitation---
Heating Degree Days10.5 (Base 65)
Growing Degree Days4.5 (Base 50)
Averaged from 24 records on January 31, 2013
WEATHER CONDITIONS BREAKOUT
WIND DIRECTION BREAKOUT
WEATHER BY HOUR - JANUARY 31, 2013
[ °C ]   °F
Local TimeTemperatureDewpointHumidityBarometerVisibilityWind DirectionWind SpeedGust SpeedPrecipitationEventsConditions
1:00 AM51.8 °F50.0 °F94 %30.39 in5.6 miSSE (160°)2.3 mph
2:00 AM50.0 °F50.0 °F100 %30.36 in5.0 miNorth (360°)2.3 mph
3:00 AM48.2 °F48.2 °F100 %30.36 in0.2 miESE (110°)2.3 mph
4:00 AM46.4 °F46.4 °F100 %30.36 in0.2 miSE (130°)3.5 mph
5:00 AM46.4 °F46.4 °F100 %30.36 inSSE (160°)2.3 mph
6:00 AM48.2 °F48.2 °F100 %30.33 in6.2 miSouth (180°)3.5 mph
7:00 AM50.0 °F50.0 °F100 %30.36 in5.6 miSouth (170°)3.5 mphMostly Cloudy
8:00 AM50.0 °F50.0 °F100 %30.36 in6.2 miVariable2.3 mphRainLight Rain
9:00 AM50.0 °F50.0 °F100 %30.36 inVariable2.3 mphClear
9:51 AM50.0 °F50.0 °F100 %30.39 in6.2 miNNW (340°)1.2 mphMostly Cloudy
10:48 AM53.6 °F51.8 °F94 %30.42 in6.2 miVariable2.3 mphRainLight Rain
10:54 AM53.6 °F51.8 °F94 %30.42 in5.0 miVariable2.3 mphRainLight Rain
12:00 PM55.4 °F55.4 °F100 %30.42 in5.0 miNW (310°)3.5 mphRainLight Rain
1:00 PM59.0 °F57.2 °F94 %30.39 in6.2 miWNW (300°)4.6 mphMostly Cloudy
2:00 PM60.8 °F55.4 °F82 %30.39 in6.2 miWNW (290°)4.6 mphRainLight Rain
3:00 PM62.6 °F55.4 °F77 %30.36 in6.2 miWest (260°)4.6 mphMostly Cloudy
4:00 PM62.6 °F53.6 °F72 %30.36 in6.2 miVariable3.5 mphMostly Cloudy
5:00 PM59.0 °F53.6 °F82 %30.36 in6.2 miNW (320°)4.6 mphMostly Cloudy
6:00 PM59.0 °F53.6 °F82 %30.33 in6.2 miCalmPartly Cloudy
7:00 PM57.2 °F53.6 °F88 %30.33 in6.2 miCalm
8:00 PM55.4 °F53.6 °F94 %30.33 in6.2 miCalm
9:00 PM55.4 °F53.6 °F94 %30.33 in6.2 miCalmPartly Cloudy
10:00 PM55.4 °F53.6 °F94 %30.30 in5.6 miSE (130°)2.3 mphPartly Cloudy
11:00 PM55.4 °F53.6 °F94 %30.30 in6.2 miVariable2.3 mphScattered Clouds
Hourly data recorded from LFBY, located miles away from Dax, France







STORIES FROM OUR PARTNERS